Change the Weather History Date:

Tuesday, February 25, 2014

  Actual Average Record
Temperature  
Mean Temperature 4 °F -  
Max Temperature 26 °F - - ()
Min Temperature -17 °F - - ()
Degree Days  
Heating Degree Days 60    
Moisture  
Dew Point -7 °F    
Average Humidity 72    
Maximum Humidity 93    
Minimum Humidity 32    
Precipitation  
Precipitation 0.06 in - - ()
Sea Level Pressure  
Sea Level Pressure 30.53 in    
Wind  
Wind Speed 5 mph ()    
Max Wind Speed 21 mph    
Max Gust Speed 25 mph    
T = Trace of Precipitation, MM = Missing Value Source: Averaged Metar Reports

Daily Weather History Graph

Daily Weather History Graph

Search for Another Location

Airport or City:

Trip Planner

Search our weather history database for the weather conditions in past years. The results will help you decide how hot, cold, wet, or windy it might be!

Date:

Astronomy

Feb. 25, 2014 Rise Set
Actual Time 7:38 AM MST 6:19 PM MST
Civil Twilight 7:04 AM MST 6:52 PM MST
Nautical Twilight 6:26 AM MST 7:31 PM MST
Astronomical Twilight 5:47 AM MST 8:10 PM MST
Moon 4:57 AM MST (2/25) 2:11 PM MST (2/25)
Length of Visible Light 11h 47m
Length of Day
10h 40m
Waning Crescent, 17% of the Moon is Illuminated
Feb 25
Waning Crescent
Mar 1
New
Mar 8
First Quarter
Mar 16
Full
Mar 23
Last Quarter

Hourly Weather History & Observations

Time (MST) Temp. Windchill Dew Point Humidity Pressure Visibility Wind Dir Wind Speed Gust Speed Precip Events Conditions
12:00 AM -9.8 °F -19.0 °F -13.9 °F 82% 30.45 in - East 3.5 mph - N/A   Unknown
1:00 AM -10.3 °F -19.6 °F -15.3 °F 78% 30.47 in - East 3.5 mph - N/A   Unknown
2:00 AM -12.1 °F -21.7 °F -17.9 °F 76% 30.54 in - ENE 3.5 mph - N/A   Unknown
3:00 AM -12.5 °F -22.1 °F -16.8 °F 81% 30.57 in - East 3.5 mph - N/A   Unknown
4:00 AM -12.8 °F - -16.2 °F 85% 30.58 in - East 2.3 mph - N/A   Unknown
5:00 AM -15 °F - -21 °F 62% 30.60 in - East 2.3 mph - -  
5:00 AM -14.8 °F - -20.7 °F 75% 30.60 in - East 2.3 mph - N/A   Unknown
6:00 AM -15.3 °F -25.4 °F -20.9 °F 76% 30.61 in - ENE 3.5 mph - N/A   Unknown
7:00 AM -15.9 °F -26.0 °F -20.9 °F 78% 30.64 in - East 3.5 mph - N/A   Unknown
8:00 AM -17.0 °F - -23.1 °F 74% 30.65 in - East 2.3 mph - N/A   Unknown
9:00 AM -16.4 °F -26.6 °F -21.8 °F 76% 30.65 in - ENE 3.5 mph - N/A   Unknown
10:00 AM -6.3 °F - -11.7 °F 77% 30.61 in - Calm Calm - N/A   Unknown
11:00 AM 14 °F - -2 °F 32% 30.53 in - Calm Calm - -  
11:00 AM 14.4 °F - -2.4 °F 48% 30.53 in - Calm Calm - N/A   Unknown
12:00 PM 25.9 °F 14.3 °F 3.2 °F 38% 30.48 in - WSW 13.8 mph - N/A   Unknown
1:00 PM 21.4 °F 7.5 °F 4.3 °F 48% 30.47 in - WSW 16.1 mph - N/A   Unknown
2:00 PM 12.7 °F -3.0 °F 1.8 °F 62% 30.49 in - WSW 15.0 mph - N/A   Unknown
3:00 PM 13.3 °F -4.4 °F 4.1 °F 67% 30.48 in - WSW 19.6 mph 25.3 mph N/A   Unknown
4:00 PM 13.6 °F -4.4 °F 6.1 °F 72% 30.47 in - WSW 20.7 mph - N/A   Unknown
5:00 PM 13 °F - 6 °F 64% 30.48 in - West 18.4 mph - -  
5:00 PM 13.5 °F -3.7 °F 6.4 °F 74% 30.48 in - West 18.4 mph 24.2 mph N/A   Unknown
6:00 PM 11.1 °F -5.7 °F 6.4 °F 81% 30.49 in - WSW 16.1 mph - N/A   Unknown
7:00 PM 7.0 °F -7.5 °F 2.8 °F 83% 30.51 in - SW 10.4 mph - N/A   Unknown
8:00 PM 5.7 °F - 4.1 °F 93% 30.52 in - Calm Calm - N/A   Unknown
9:00 PM 3.7 °F - 0.3 °F 86% 30.53 in - Calm Calm - N/A   Unknown
10:00 PM 1.6 °F - -2.6 °F 83% 30.51 in - ESE 1.2 mph - N/A   Unknown
11:00 PM -1 °F - -5 °F 73% 30.44 in - ESE 1.2 mph - -  
11:00 PM -0.9 °F - -5.3 °F 82% 30.44 in - ESE 1.2 mph - N/A   Unknown